ZL3DRP Weather Reports


time (UTC)temp
C
wind
direction
speed
KPH
gust
KPH
rain 1hr
cm
rain 24hr
cm
rain mn
cm
humidity
%
barometer
mb
20260505083503 5 62 3.2 6.4 0.00 0.03 0.03 88 1022.7
20260505083003 5 62 3.2 6.4 0.00 0.03 0.03 88 1022.8
20260505082503 5 62 4.8 6.4 0.00 0.03 0.03 88 1022.7
20260505082003 5 62 3.2 6.4 0.00 0.03 0.03 88 1022.9
20260505081503 5 63 3.2 6.4 0.00 0.03 0.03 88 1023.0
20260505081003 5 61 3.2 6.4 0.00 0.03 0.03 88 1023.1
20260505080524 5 55 3.2 6.4 0.00 0.03 0.03 88 1023.1
20260505080024 5 48 1.6 6.4 0.00 0.03 0.03 88 1023.1
20260505075503 5 44 3.2 6.4 0.00 0.03 0.03 88 1023.2
20260505075003 5 44 3.2 4.8 0.00 0.03 0.03 87 1023.2
20260505074503 5 44 3.2 6.4 0.00 0.03 0.03 88 1023.3
20260505074003 5 45 4.8 6.4 0.00 0.03 0.03 88 1023.4
20260505073503 5 44 4.8 6.4 0.00 0.03 0.03 88 1023.4
20260505073003 5 41 4.8 6.4 0.00 0.03 0.03 87 1023.5
20260505072503 5 39 4.8 8.0 0.00 0.03 0.03 87 1023.4
20260505072003 5 38 4.8 8.0 0.00 0.03 0.03 87 1023.4
20260505071503 5 37 3.2 8.0 0.00 0.03 0.03 88 1023.5
20260505071003 6 42 3.2 6.4 0.00 0.03 0.03 87 1023.6
20260505070503 6 54 3.2 6.4 0.00 0.03 0.03 87 1023.5
20260505070003 6 51 4.8 6.4 0.00 0.03 0.03 87 1023.6
20260505065503 6 37 4.8 8.0 0.00 0.03 0.03 87 1023.5
20260505065003 6 40 4.8 8.0 0.00 0.03 0.03 87 1023.5
20260505064503 6 45 4.8 8.0 0.00 0.03 0.03 87 1023.5
20260505064003 6 48 3.2 8.0 0.00 0.03 0.03 87 1023.5
20260505063503 6 64 3.2 8.0 0.00 0.03 0.03 87 1023.5
20260505063003 6 79 1.6 4.8 0.00 0.03 0.03 87 1023.4
20260505062503 6 79 3.2 4.8 0.00 0.03 0.03 87 1023.5
20260505062003 6 79 3.2 6.4 0.00 0.03 0.03 87 1023.5
20260505061503 6 79 3.2 6.4 0.00 0.03 0.03 87 1023.6
20260505061003 6 78 4.8 6.4 0.00 0.03 0.03 87 1023.6
20260505060524 6 75 3.2 8.0 0.00 0.03 0.03 87 1023.5
20260505060003 6 68 3.2 8.0 0.00 0.03 0.03 87 1023.5
20260505055503 6 63 3.2 8.0 0.00 0.03 0.03 87 1023.6
20260505055003 6 72 4.8 8.0 0.00 0.03 0.03 87 1023.6
20260505054503 6 81 4.8 9.7 0.00 0.03 0.03 87 1023.6
20260505054003 6 71 4.8 9.7 0.00 0.03 0.03 87 1023.6
20260505053503 7 64 4.8 8.0 0.00 0.03 0.03 87 1023.7
20260505053024 7 66 4.8 8.0 0.00 0.03 0.03 87 1023.6
20260505052503 7 68 4.8 8.0 0.00 0.03 0.03 87 1023.6
20260505052003 7 72 3.2 8.0 0.00 0.03 0.03 87 1023.6
20260505051503 7 81 3.2 8.0 0.00 0.03 0.03 87 1023.6
20260505051003 7 90 3.2 6.4 0.00 0.03 0.03 87 1023.7
20260505050503 7 85 3.2 9.7 0.00 0.03 0.03 87 1023.7
20260505041503 8 90 3.2 6.4 0.00 0.03 0.03 86 1024.0
20260505041003 8 95 3.2 9.7 0.00 0.03 0.03 86 1024.0
20260505040503 8 99 3.2 9.7 0.00 0.03 0.03 86 1023.9
20260505040004 8 94 3.2 9.7 0.00 0.03 0.03 86 1023.9
20260505035503 8 105 4.8 9.7 0.00 0.03 0.03 86 1023.9
20260505035024 8 111 4.8 9.7 0.00 0.03 0.03 86 1023.8
20260505034503 8 114 6.4 12.9 0.00 0.03 0.03 86 1023.9
20260505034003 8 114 4.8 12.9 0.00 0.03 0.03 86 1023.8
20260505033503 8 107 4.8 11.3 0.00 0.03 0.03 85 1023.9
20260505033003 9 94 4.8 11.3 0.00 0.03 0.03 85 1023.9
20260505032524 10 93 4.8 11.3 0.00 0.03 0.03 85 1023.9
20260505032003 10 97 4.8 9.7 0.00 0.03 0.03 84 1024.0
20260505031503 10 97 4.8 11.3 0.00 0.03 0.03 85 1024.0
20260505031003 10 101 4.8 11.3 0.00 0.03 0.03 84 1023.9
20260505030503 10 92 4.8 11.3 0.00 0.03 0.03 85 1024.0
20260505030024 10 95 4.8 8.0 0.00 0.03 0.03 85 1024.0
20260505025503 10 104 4.8 11.3 0.00 0.03 0.03 84 1024.1
20260505025004 10 95 4.8 11.3 0.00 0.03 0.03 85 1024.2
20260505024524 10 95 4.8 12.9 0.00 0.03 0.03 85 1024.2
20260505024004 10 102 4.8 12.9 0.00 0.03 0.03 85 1024.2
20260505023503 10 101 6.4 12.9 0.00 0.03 0.03 85 1024.3
20260505023003 10 85 6.4 12.9 0.00 0.03 0.03 85 1024.2
20260505022503 10 74 6.4 12.9 0.00 0.03 0.03 85 1024.3
20260505022003 10 74 4.8 12.9 0.00 0.03 0.03 86 1024.3
20260505021524 10 81 4.8 11.3 0.00 0.03 0.03 86 1024.4
20260505021003 9 87 6.4 11.3 0.00 0.03 0.03 86 1024.6
20260505020504 9 76 4.8 12.9 0.00 0.03 0.03 86 1024.7
20260505020004 9 79 4.8 12.9 0.00 0.03 0.03 86 1024.7
20260505015504 9 85 4.8 12.9 0.00 0.03 0.03 86 1024.9
20260505015003 9 82 4.8 12.9 0.00 0.03 0.03 86 1024.9
20260505014524 9 91 4.8 11.3 0.00 0.03 0.03 87 1025.0
20260505014003 9 85 4.8 11.3 0.00 0.03 0.03 87 1025.0
20260505013503 9 74 4.8 11.3 0.00 0.03 0.03 87 1025.1
20260505013003 9 91 3.2 11.3 0.00 0.03 0.03 87 1025.2
20260505012503 9 106 3.2 9.7 0.00 0.03 0.03 88 1025.3
20260505012024 8 90 3.2 9.7 0.00 0.03 0.03 88 1025.4
20260505011503 8 85 3.2 9.7 0.00 0.03 0.03 88 1025.5
20260505011003 8 95 4.8 8.0 0.00 0.03 0.03 88 1025.7
20260505010503 8 94 4.8 9.7 0.00 0.03 0.03 89 1025.7
20260505010004 8 102 3.2 9.7 0.00 0.03 0.03 89 1025.8
20260505005503 7 106 3.2 8.0 0.00 0.03 0.03 89 1025.9
20260505005004 7 99 3.2 6.4 0.00 0.03 0.03 89 1026.1
20260505004503 7 104 3.2 6.4 0.00 0.03 0.03 89 1026.1
20260505004024 7 116 3.2 6.4 0.00 0.03 0.03 89 1026.2
20260505003503 6 136 3.2 8.0 0.00 0.03 0.03 89 1026.5
20260505003003 7 151 3.2 6.4 0.00 0.03 0.03 89 1026.5
20260505002503 6 145 3.2 8.0 0.00 0.03 0.03 89 1026.5
20260505002003 6 131 3.2 8.0 0.00 0.03 0.03 89 1026.7
20260505001503 6 124 3.2 6.4 0.00 0.03 0.03 89 1026.8
20260505001003 6 125 3.2 4.8 0.00 0.03 0.03 89 1026.8
20260505000502 6 128 3.2 8.0 0.00 0.03 0.03 89 1026.9
20260505000003 6 115 3.2 11.3 0.00 0.03 0.03 89 1026.9
20260504235502 6 89 3.2 11.3 0.00 0.05 0.03 89 1027.0
20260504235002 6 77 3.2 6.4 0.00 0.05 0.03 89 1027.1
20260504234502 6 75 3.2 6.4 0.00 0.05 0.03 89 1027.2
20260504234002 5 73 3.2 8.0 0.00 0.05 0.03 89 1027.4
20260504233503 5 77 3.2 8.0 0.00 0.05 0.03 89 1027.4
20260504233002 5 94 3.2 8.0 0.00 0.05 0.03 89 1027.4
20260504232503 5 104 3.2 6.4 0.00 0.05 0.03 89 1027.5
20260504232002 5 97 3.2 6.4 0.00 0.05 0.03 89 1027.5
20260504231502 5 93 3.2 6.4 0.00 0.05 0.03 89 1027.6
20260504231002 5 93 3.2 9.7 0.00 0.05 0.03 89 1027.6
20260504230502 5 104 1.6 9.7 0.00 0.05 0.03 89 1027.5
20260504230024 5 125 1.6 6.4 0.00 0.05 0.03 89 1027.5
20260504225502 5 128 1.6 4.8 0.00 0.05 0.03 88 1027.5
20260504225003 5 128 3.2 4.8 0.00 0.05 0.03 88 1027.5
20260504224502 5 130 3.2 6.4 0.00 0.05 0.03 88 1027.5
20260504224002 5 129 3.2 6.4 0.00 0.05 0.03 89 1027.5
20260504223502 5 123 3.2 6.4 0.00 0.05 0.03 89 1027.5
20260504223002 5 123 3.2 4.8 0.00 0.05 0.03 88 1027.6
20260504222502 5 125 3.2 6.4 0.00 0.05 0.03 88 1027.7
20260504222003 5 123 3.2 6.4 0.00 0.05 0.03 89 1027.6
20260504221503 5 117 3.2 6.4 0.00 0.05 0.03 89 1027.6
20260504221023 5 113 1.6 6.4 0.00 0.05 0.03 89 1027.6
20260504220502 5 143 1.6 4.8 0.00 0.05 0.03 89 1027.7
20260504220003 5 204 1.6 4.8 0.00 0.05 0.03 89 1027.6
20260504215502 5 207 1.6 3.2 0.00 0.05 0.03 89 1027.7
20260504215002 5 207 1.6 3.2 0.00 0.05 0.03 89 1027.6
20260504214503 5 208 1.6 3.2 0.00 0.05 0.03 89 1027.7
20260504214023 3 223 1.6 6.4 0.00 0.05 0.03 89 1027.7
20260504213503 4 263 0.0 6.4 0.00 0.05 0.03 89 1027.8
20260504213002 3 329 0.0 3.2 0.00 0.05 0.03 89 1027.7
20260504212502 3 329 0.0 3.2 0.00 0.05 0.03 89 1027.8
20260504212002 2 329 0.0 1.6 0.00 0.05 0.03 89 1027.8
20260504211503 2 329 0.0 1.6 0.00 0.05 0.03 89 1027.9
20260504211002 2 329 0.0 3.2 0.00 0.05 0.03 89 1027.8
20260504210503 2 329 0.0 3.2 0.00 0.05 0.03 89 1027.8
20260504210003 1 329 0.0 1.6 0.00 0.05 0.03 89 1027.8
20260504205502 2 329 0.0 1.6 0.00 0.05 0.03 89 1027.8
20260504205023 1 329 0.0 1.6 0.00 0.05 0.03 89 1027.9
20260504204502 1 329 0.0 1.6 0.00 0.05 0.03 89 1028.0
20260504204003 0 329 0.0 1.6 0.00 0.05 0.03 89 1028.0
20260504203523 0 329 0.0 1.6 0.00 0.05 0.03 89 1028.0
20260504203002 0 329 0.0 1.6 0.00 0.05 0.03 89 1028.0
20260504202502 0 329 0.0 1.6 0.00 0.05 0.03 88 1028.0
20260504202002 0 329 0.0 1.6 0.00 0.05 0.03 89 1028.0
20260504201502 0 0 0.0 0.0 0.00 0.05 0.03 89 1028.0
20260504201002 0 329 0.0 1.6 0.00 0.05 0.03 88 1027.9
20260504200503 0 329 0.0 1.6 0.00 0.05 0.03 88 1027.9
20260504200003 0 329 0.0 1.6 0.00 0.05 0.03 88 1027.9
20260504195502 0 330 0.0 1.6 0.00 0.05 0.03 88 1027.8
20260504195003 0 330 1.6 1.6 0.00 0.05 0.03 88 1027.9
20260504194502 0 330 1.6 3.2 0.00 0.05 0.03 88 1027.8
20260504194003 0 329 1.6 4.8 0.00 0.05 0.03 88 1027.7
20260504193524 0 329 0.0 4.8 0.00 0.05 0.03 88 1027.7
20260504193024 0 329 0.0 3.2 0.00 0.05 0.03 88 1027.7
20260504192523 0 329 0.0 1.6 0.00 0.05 0.03 88 1027.7
20260504192003 0 329 1.6 3.2 0.00 0.05 0.03 88 1027.7
20260504191503 0 329 0.0 3.2 0.00 0.05 0.03 88 1027.7
20260504191002 0 329 0.0 3.2 0.00 0.05 0.03 88 1027.7
20260504190503 0 329 0.0 1.6 0.00 0.05 0.03 88 1027.7
20260504190002 0 329 0.0 1.6 0.00 0.05 0.03 88 1027.7
20260504185524 0 329 0.0 1.6 0.00 0.05 0.03 88 1027.7
20260504185002 0 329 0.0 1.6 0.00 0.05 0.03 88 1027.7
20260504184502 0 329 1.6 3.2 0.00 0.05 0.03 88 1027.6
20260504184003 0 330 1.6 3.2 0.00 0.05 0.03 88 1027.7
20260504183502 0 330 1.6 3.2 0.00 0.05 0.03 88 1027.7
20260504183003 0 330 1.6 4.8 0.00 0.05 0.03 88 1027.7
20260504182502 0 330 1.6 4.8 0.00 0.05 0.03 88 1027.7
20260504182023 1 330 1.6 4.8 0.00 0.05 0.03 88 1027.8
20260504181503 1 330 0.0 3.2 0.00 0.05 0.03 88 1027.8
20260504181003 1 330 0.0 3.2 0.00 0.05 0.03 88 1027.7
20260504180503 1 330 1.6 3.2 0.00 0.05 0.03 88 1027.7
20260504180024 1 330 1.6 3.2 0.00 0.05 0.03 88 1027.8
20260504175503 1 330 1.6 3.2 0.00 0.05 0.03 88 1027.8
20260504175003 2 330 1.6 3.2 0.00 0.05 0.03 88 1027.8
20260504174502 2 330 1.6 4.8 0.00 0.05 0.03 88 1027.9
20260504174003 2 330 3.2 4.8 0.00 0.05 0.03 88 1027.9
20260504173503 2 330 3.2 4.8 0.00 0.05 0.03 88 1027.9
20260504173003 2 330 3.2 4.8 0.00 0.05 0.03 88 1027.9
20260504172502 2 330 3.2 4.8 0.03 0.05 0.03 88 1027.9
20260504172003 2 330 3.2 4.8 0.03 0.05 0.03 88 1027.9
20260504171502 2 330 1.6 4.8 0.03 0.05 0.03 88 1027.9
20260504171024 2 330 1.6 4.8 0.03 0.05 0.03 88 1027.9
20260504170503 2 330 3.2 3.2 0.03 0.05 0.03 88 1027.9
20260504151024 2 336 1.6 4.8 0.00 0.05 0.00 88 1028.0
20260504150503 2 336 1.6 4.8 0.00 0.05 0.00 88 1028.0
20260504141002 5 356 1.6 3.2 0.00 0.05 0.00 88 1028.4
20260504140503 5 356 3.2 4.8 0.00 0.05 0.00 88 1028.4
20260504130503 5 357 1.6 3.2 0.00 0.05 0.00 87 1028.8
20260504110503 6 1 3.2 4.8 0.00 0.05 0.05 87 1029.3
20260504100503 7 334 1.6 6.4 0.00 0.05 0.05 87 1029.5